星链-35477(STARLINK-35477)

导读

STARLINK-35477是美国SpaceX公司星链(Starlink)星座的一员,于2025年11月6日发射。星链项目旨在构建全球卫星互联网通信系统,该卫星运行在近地轨道,可提供高速互联网接入服务,弥补地面网络覆盖盲区,服务全球偏远地区网络需求,同时也引发了天文观测和太空垃圾等领域的争议。作为星链扩容的卫星之一,它进一步增强了星座的服务容量与覆盖能力。

基本信息
目录编号:
66338
目录名称:
STARLINK-35477
国际标识:
2025-253V
轨道中心:
EARTH
卫星名称:
星链-35477
卫星全名:
星链-35477(STARLINK-35477)
卫星状态:
在轨 (已飞行302 天)
发射日期:
2025-11-06 UTC
国别 :
美国 (US)
星等 :
--
轨道信息
数据来源 国际轨道数据
星历时间: 2026-09-04T12:21:35+0800
4小时前
查看轨道信息
半长轴: 6861.167km
偏心率: 0.0001646
轨道倾角: 43.000°
近地点辐角 276.725°
升交点赤经 284.384°
平近点角 83.342°
近地点: 481.9km
远地点: 484.16km
周期: 94.266分钟
每日圈数: 15.275865
详细信息
固有亮度:
5
最大亮度:
2.5
卫星平台:
Starlink V1.0
覆盖范围:
全球
运营商:
太空探索技术公司
运营商所在国:
美国
制造商(研发单位):
太空探索技术公司
制造商所在国:
美国
使用方式:
暂无
卫星简介
Starlink 计划是 SpaceX 推出的全球卫星互联网项目,通过发射低轨道卫星,为全球尤其是偏远地区提供高速、低延迟的互联网服务。自 2019 年起,Starlink 已部署数千颗卫星,旨在缩小全球数字鸿沟,推动互联网普及。该项目还为军事、航空等行业提供通信支持,带来广泛经济效益。
2D轨道图
3D轨道图
轨道高度分析图
轨道倾角分析图
轨道综合分析图
查看轨道综合分析图